This is the latest recevied weather packets stored in our database for station/object VE3TEJ. If no packets are shown the sender has not sent any weather packets the latest 10 day(s).
| Time | Temp. | Humidity | Pressure | Rain* | Wind** | Luminosity | Snow |
|---|---|---|---|---|---|---|---|
| 1787953955 | 21.67° C | 47% | 1026.2 hPa | 0 mm | - | - | - |
| 1787953655 | 21.67° C | 47% | 1026.3 hPa | 0 mm | - | - | - |
| 1787953606 | 21.67° C | 47% | 1026.1 hPa | 0 mm | - | - | - |
| 1787953355 | 22.22° C | 46% | 1026.2 hPa | 0 mm | - | - | - |
| 1787953056 | 22.22° C | 48% | 1026.3 hPa | 0 mm | - | - | - |
| 1787952756 | 22.78° C | 49% | 1026.4 hPa | 0 mm | - | - | - |
| 1787952708 | 22.78° C | 47% | 1026.3 hPa | 0 mm | - | - | - |
| 1787952456 | 22.78° C | 45% | 1026.1 hPa | 0 mm | - | - | - |
| 1787952156 | 22.22° C | 46% | 1026.3 hPa | 0 mm | - | - | - |
| 1787951855 | 22.78° C | 45% | 1026.1 hPa | 0 mm | - | - | - |
| 1787951806 | 22.78° C | 46% | 1026.1 hPa | 0 mm | - | - | - |
| 1787951555 | 22.22° C | 46% | 1026.3 hPa | 0 mm | - | - | - |
| 1787951255 | 22.22° C | 47% | 1026.1 hPa | 0 mm | - | - | - |
| 1787950957 | 22.22° C | 47% | 1026 hPa | 0 mm | - | - | - |
| 1787950908 | 22.22° C | 48% | 1026 hPa | 0 mm | - | - | - |
| 1787950656 | 22.22° C | 43% | 1026.2 hPa | 0 mm | - | - | - |
| 1787950356 | 22.22° C | 45% | 1026.3 hPa | 0 mm | - | - | - |
| 1787950056 | 22.78° C | 45% | 1026 hPa | 0 mm | - | - | - |
| 1787950009 | 22.22° C | 46% | 1026.1 hPa | 0 mm | - | - | - |
| 1787949756 | 22.22° C | 46% | 1026.3 hPa | 0 mm | - | - | - |
| 1787949455 | 22.78° C | 47% | 1026.2 hPa | 0 mm | - | - | - |
| 1787949155 | 22.78° C | 45% | 1026.1 hPa | 0 mm | - | - | - |
| 1787949106 | 22.78° C | 44% | 1026.1 hPa | 0 mm | - | - | - |
| 1787948857 | 22.22° C | 45% | 1026.2 hPa | 0 mm | - | - | - |
| 1787948557 | 22.22° C | 48% | 1026.3 hPa | 0 mm | - | - | - |
* Rain latest hour (hover to see other rain measurements)
** Current wind speed in m/s (hover to see current wind gust speed)